LRI582 EGPE-BIKF

Flight info

Callsign LRI582
Flight time 2h 1m
Altitude 18000
Route RIMOL Y906 STN/N0479F360 DCT INNUF DCT ATSIX/M082F360 DCT ALDAN DCT ASRUN ASRUN2H
Aircraft CL60/M-SADE3FGHIJ3J4J7P2RWXY/HB1D1

Departure

Time 2026-05-08 14:34
Airport Inverness Airport (EGPE)

Arrival

Time 2026-05-08 16:35
Airport Keflavik International Airport (BIKF)
Time Latitude Longitude Altitude Speed Heading
2026-05-08 13:50 57.54246 -4.06187 40 ft 0 kts 248°
2026-05-08 14:28 57.54246 -4.06217 41 ft 5 kts 288°
2026-05-08 14:28 57.54287 -4.06261 41 ft 8 kts
2026-05-08 14:28 57.54355 -4.06250 41 ft 11 kts 12°
2026-05-08 14:28 57.54419 -4.06133 39 ft 15 kts 50°
2026-05-08 14:29 57.54467 -4.05970 38 ft 15 kts 81°
2026-05-08 14:29 57.54512 -4.05781 36 ft 13 kts 73°
2026-05-08 14:29 57.54558 -4.05613 35 ft 16 kts 52°
2026-05-08 14:29 57.54633 -4.05429 34 ft 19 kts 53°
2026-05-08 14:30 57.54699 -4.05269 33 ft 16 kts 52°
2026-05-08 14:30 57.54762 -4.05094 34 ft 12 kts 73°
2026-05-08 14:30 57.54787 -4.04911 32 ft 18 kts 75°
2026-05-08 14:30 57.54833 -4.04711 31 ft 14 kts 50°
2026-05-08 14:31 57.54905 -4.04557 33 ft 16 kts 48°
2026-05-08 14:31 57.54972 -4.04374 30 ft 15 kts 83°
2026-05-08 14:31 57.54929 -4.04201 29 ft 15 kts 141°
2026-05-08 14:32 57.54747 -4.03943 28 ft 12 kts 142°
2026-05-08 14:32 57.54718 -4.03902 28 ft 0 kts 143°
2026-05-08 14:33 57.54688 -4.03860 28 ft 10 kts 145°
2026-05-08 14:33 57.54612 -4.03969 28 ft 33 kts 230°
2026-05-08 14:34 57.54283 -4.04683 31 ft 115 kts 230°
2026-05-08 14:34 57.53596 -4.06153 154 ft 177 kts 231°
2026-05-08 14:34 57.52768 -4.07939 978 ft 189 kts 237°
2026-05-08 14:34 57.52266 -4.10169 2000 ft 200 kts 263°
2026-05-08 14:35 57.52447 -4.12821 2930 ft 225 kts 295°
2026-05-08 14:35 57.53447 -4.15110 3926 ft 241 kts 312°
2026-05-08 14:35 57.54651 -4.17344 3989 ft 249 kts 313°
2026-05-08 14:35 57.55801 -4.19661 3978 ft 229 kts 307°
2026-05-08 14:36 57.56701 -4.21946 4634 ft 223 kts 301°
2026-05-08 14:36 57.57487 -4.24496 5333 ft 234 kts 295°
2026-05-08 14:36 57.58140 -4.27252 6027 ft 237 kts 289°
2026-05-08 14:36 57.58826 -4.30038 6738 ft 241 kts 304°
2026-05-08 14:37 57.59968 -4.32357 7449 ft 247 kts 311°
2026-05-08 14:37 57.61168 -4.34618 8146 ft 248 kts 311°
2026-05-08 14:37 57.62370 -4.36897 8842 ft 250 kts 310°
2026-05-08 14:37 57.63577 -4.39204 9550 ft 252 kts 310°
2026-05-08 14:38 57.64790 -4.41555 10246 ft 255 kts 309°
2026-05-08 14:38 57.66011 -4.43968 10951 ft 258 kts 308°
2026-05-08 14:38 57.67229 -4.46382 11662 ft 262 kts 308°
2026-05-08 14:38 57.68476 -4.48863 12354 ft 263 kts 306°
2026-05-08 14:39 57.69539 -4.51591 13064 ft 261 kts 295°
2026-05-08 14:39 57.70450 -4.54481 13749 ft 264 kts 294°
2026-05-08 14:39 57.71390 -4.57454 14464 ft 268 kts 294°
2026-05-08 14:39 57.72352 -4.60515 15157 ft 287 kts 294°
2026-05-08 14:40 57.73403 -4.63868 15847 ft 307 kts 294°
2026-05-08 14:40 57.74496 -4.67349 16539 ft 324 kts 293°
2026-05-08 14:40 57.75661 -4.71051 17244 ft 337 kts 293°
2026-05-08 14:40 57.76851 -4.74833 17794 ft 344 kts 292°
2026-05-08 14:41 57.78082 -4.78735 17993 ft 345 kts 292°
2026-05-08 14:41 57.79284 -4.82546 18021 ft 342 kts 292°
2026-05-08 14:41 57.80492 -4.86381 18029 ft 340 kts 292°
2026-05-08 14:41 57.81679 -4.90160 18032 ft 338 kts 292°
2026-05-08 14:42 57.82877 -4.93985 18043 ft 338 kts 292°
2026-05-08 14:42 57.84052 -4.97743 18039 ft 338 kts 292°
2026-05-08 14:42 57.85237 -5.01540 18054 ft 338 kts 292°
2026-05-08 14:42 57.86417 -5.05328 18049 ft 338 kts 292°
2026-05-08 14:43 57.87611 -5.09166 18038 ft 338 kts 292°
2026-05-08 14:43 57.88786 -5.12957 18032 ft 342 kts 292°
2026-05-08 14:43 57.89994 -5.16869 18026 ft 348 kts 293°
2026-05-08 14:43 57.91192 -5.20653 18106 ft 328 kts 295°
2026-05-08 14:44 57.92440 -5.24264 17767 ft 346 kts 297°
2026-05-08 14:44 57.93913 -5.27950 17345 ft 353 kts 303°
2026-05-08 14:44 57.95596 -5.31292 17246 ft 355 kts 311°
2026-05-08 14:44 57.97541 -5.34183 17235 ft 364 kts 320°
2026-05-08 14:45 57.99809 -5.36481 17239 ft 373 kts 331°
2026-05-08 14:45 58.02302 -5.37879 17295 ft 383 kts 344°
2026-05-08 14:45 58.05004 -5.38178 17297 ft 392 kts 359°
2026-05-08 14:45 58.07693 -5.37660 17614 ft 387 kts 356°
2026-05-08 14:46 58.10273 -5.38477 17903 ft 377 kts 332°
2026-05-08 14:46 58.12404 -5.41160 18046 ft 363 kts 307°
2026-05-08 14:46 58.13659 -5.45097 18070 ft 344 kts 282°
2026-05-08 14:46 58.14082 -5.49433 18059 ft 339 kts 275°
2026-05-08 14:47 58.14509 -5.53851 18041 ft 339 kts 276°
2026-05-08 14:47 58.14951 -5.58178 18063 ft 339 kts 277°
2026-05-08 14:47 58.15393 -5.62574 18070 ft 340 kts 277°
2026-05-08 14:47 58.15829 -5.66962 18065 ft 340 kts 276°
2026-05-08 14:48 58.16261 -5.71347 18051 ft 340 kts 276°
2026-05-08 14:48 58.16692 -5.75762 18066 ft 341 kts 276°
2026-05-08 14:48 58.17115 -5.80136 18074 ft 341 kts 276°
2026-05-08 14:48 58.17537 -5.84537 18069 ft 341 kts 276°
2026-05-08 14:49 58.17962 -5.88995 18072 ft 343 kts 276°
2026-05-08 14:49 58.18378 -5.93382 18052 ft 342 kts 277°
2026-05-08 14:49 58.18793 -5.97795 18082 ft 345 kts 277°
2026-05-08 14:49 58.19220 -6.02377 18066 ft 353 kts 277°
2026-05-08 14:50 58.19643 -6.06939 18061 ft 357 kts 277°
2026-05-08 14:50 58.20071 -6.11574 18082 ft 356 kts 277°
2026-05-08 14:50 58.20625 -6.16139 18090 ft 359 kts 286°
2026-05-08 14:50 58.21800 -6.20290 18099 ft 367 kts 303°
2026-05-08 14:51 58.23538 -6.23927 18068 ft 371 kts 310°
2026-05-08 14:51 58.25309 -6.27382 18088 ft 371 kts 309°
2026-05-08 14:51 58.27115 -6.30931 18086 ft 371 kts 309°
2026-05-08 14:51 58.28904 -6.34451 18083 ft 370 kts 309°
2026-05-08 14:52 58.30681 -6.37955 18080 ft 370 kts 309°
2026-05-08 14:52 58.34254 -6.45020 18072 ft 370 kts 309°
2026-05-08 14:52 58.36027 -6.48538 18253 ft 376 kts 309°
2026-05-08 14:53 58.37829 -6.52118 19444 ft 374 kts 309°
2026-05-08 14:53 58.39584 -6.55601 20758 ft 366 kts 308°
2026-05-08 14:53 58.41326 -6.59072 21841 ft 365 kts 308°
2026-05-08 14:53 58.43063 -6.62542 22696 ft 368 kts 308°
2026-05-08 14:54 58.44842 -6.66105 23459 ft 373 kts 307°
2026-05-08 14:54 58.46609 -6.69650 24210 ft 377 kts 307°
2026-05-08 14:54 58.48421 -6.73287 24923 ft 381 kts 307°
2026-05-08 14:54 58.50254 -6.76974 25593 ft 386 kts 307°
2026-05-08 14:55 58.52102 -6.80695 26235 ft 389 kts 307°
2026-05-08 14:55 58.53946 -6.84415 26840 ft 392 kts 307°
2026-05-08 14:55 58.55835 -6.88230 27393 ft 396 kts 307°
2026-05-08 14:55 58.57711 -6.92027 27956 ft 399 kts 307°
2026-05-08 14:56 58.59617 -6.95888 28472 ft 403 kts 307°
2026-05-08 14:56 58.61549 -6.99811 28969 ft 406 kts 307°
2026-05-08 14:56 58.63470 -7.03717 29476 ft 408 kts 307°
2026-05-08 14:56 58.65431 -7.07709 29924 ft 411 kts 307°
2026-05-08 14:57 58.67391 -7.11708 30298 ft 415 kts 307°
2026-05-08 14:57 58.69364 -7.15744 30601 ft 419 kts 307°
2026-05-08 14:57 58.71350 -7.19810 30917 ft 423 kts 307°
2026-05-08 14:57 58.73385 -7.23984 31203 ft 426 kts 307°
2026-05-08 14:58 58.75387 -7.28098 31480 ft 429 kts 308°
2026-05-08 14:58 58.77418 -7.32281 31732 ft 432 kts 308°
2026-05-08 14:58 58.79493 -7.36560 31981 ft 435 kts 308°
2026-05-08 14:58 58.81560 -7.40830 32201 ft 438 kts 308°
2026-05-08 14:59 58.83641 -7.45140 32416 ft 441 kts 308°
2026-05-08 14:59 58.87834 -7.53842 32864 ft 445 kts 308°
2026-05-08 14:59 58.89942 -7.58230 33137 ft 445 kts 308°
2026-05-08 15:00 58.92033 -7.62592 33400 ft 446 kts 309°
2026-05-08 15:00 58.94147 -7.67007 33686 ft 445 kts 308°
2026-05-08 15:00 58.96236 -7.71382 33992 ft 445 kts 308°
2026-05-08 15:00 58.98312 -7.75734 34304 ft 444 kts 308°
2026-05-08 15:01 59.00403 -7.80129 34601 ft 444 kts 309°
2026-05-08 15:01 59.02508 -7.84562 34900 ft 443 kts 308°
2026-05-08 15:01 59.04576 -7.88927 35174 ft 443 kts 309°
2026-05-08 15:01 59.06634 -7.93277 35442 ft 443 kts 309°
2026-05-08 15:02 59.08719 -7.97695 35702 ft 442 kts 309°
2026-05-08 15:02 59.10793 -8.02097 35928 ft 443 kts 309°
2026-05-08 15:02 59.12887 -8.06551 36073 ft 445 kts 309°
2026-05-08 15:02 59.14972 -8.10999 36091 ft 451 kts 309°
2026-05-08 15:03 59.19224 -8.20091 36090 ft 462 kts 309°
2026-05-08 15:03 59.23572 -8.29423 36086 ft 467 kts 309°
2026-05-08 15:04 59.27929 -8.38809 36089 ft 468 kts 309°
2026-05-08 15:04 59.32267 -8.48192 36084 ft 467 kts 309°
2026-05-08 15:05 59.36597 -8.57599 36085 ft 467 kts 309°
2026-05-08 15:05 59.40954 -8.67103 36086 ft 467 kts 309°
2026-05-08 15:06 59.45252 -8.76519 36090 ft 467 kts 309°
2026-05-08 15:06 59.49577 -8.86033 36087 ft 466 kts 309°
2026-05-08 15:07 59.53876 -8.95528 36087 ft 467 kts 309°
2026-05-08 15:07 59.58164 -9.05039 36082 ft 467 kts 309°
2026-05-08 15:08 59.61736 -9.12992 36081 ft 467 kts 309°
2026-05-08 15:08 59.66750 -9.24203 36086 ft 467 kts 309°
2026-05-08 15:09 59.71030 -9.33816 36077 ft 466 kts 309°
2026-05-08 15:09 59.75265 -9.43370 36078 ft 466 kts 310°
2026-05-08 15:10 59.79529 -9.53027 36081 ft 466 kts 310°
2026-05-08 15:10 59.83795 -9.62731 36087 ft 466 kts 310°
2026-05-08 15:11 59.88012 -9.72364 36083 ft 466 kts 309°
2026-05-08 15:11 59.92272 -9.82136 36088 ft 467 kts 309°
2026-05-08 15:12 59.96504 -9.91886 36085 ft 467 kts 309°
2026-05-08 15:12 60.00723 -10.01727 36092 ft 466 kts 308°
2026-05-08 15:13 60.04775 -10.11669 36099 ft 466 kts 308°
2026-05-08 15:13 60.08856 -10.21729 36113 ft 465 kts 308°
2026-05-08 15:14 60.12898 -10.31734 36103 ft 466 kts 308°
2026-05-08 15:14 60.16969 -10.41855 36099 ft 466 kts 308°
2026-05-08 15:15 60.21019 -10.51970 36104 ft 467 kts 308°
2026-05-08 15:15 60.25052 -10.62082 36112 ft 466 kts 308°
2026-05-08 15:16 60.29101 -10.72280 36112 ft 466 kts 308°
2026-05-08 15:16 60.33101 -10.82400 36113 ft 465 kts 308°
2026-05-08 15:17 60.37115 -10.92599 36123 ft 465 kts 308°
2026-05-08 15:17 60.41139 -11.02868 36127 ft 465 kts 308°
2026-05-08 15:18 60.45110 -11.13047 36125 ft 465 kts 308°
2026-05-08 15:18 60.49112 -11.23352 36136 ft 466 kts 308°
2026-05-08 15:19 60.53087 -11.33634 36136 ft 465 kts 308°
2026-05-08 15:19 60.57061 -11.43957 36142 ft 465 kts 308°
2026-05-08 15:20 60.61035 -11.54326 36144 ft 465 kts 308°
2026-05-08 15:20 60.64981 -11.64669 36149 ft 465 kts 308°
2026-05-08 15:21 60.68916 -11.75030 36143 ft 464 kts 307°
2026-05-08 15:21 60.72839 -11.85403 36143 ft 463 kts 307°
2026-05-08 15:22 60.76777 -11.95866 36141 ft 463 kts 308°
2026-05-08 15:22 60.80661 -12.06230 36146 ft 463 kts 308°
2026-05-08 15:23 60.84566 -12.16698 36147 ft 463 kts 308°
2026-05-08 15:23 60.88460 -12.27182 36145 ft 463 kts 308°
2026-05-08 15:24 60.92337 -12.37668 36153 ft 463 kts 308°
2026-05-08 15:24 60.96214 -12.48205 36156 ft 462 kts 308°
2026-05-08 15:25 61.00069 -12.58728 36159 ft 461 kts 308°
2026-05-08 15:25 61.03899 -12.69231 36165 ft 461 kts 307°
2026-05-08 15:26 61.07737 -12.79802 36163 ft 461 kts 307°
2026-05-08 15:26 61.11568 -12.90402 36169 ft 461 kts 307°
2026-05-08 15:27 61.15384 -13.01011 36177 ft 461 kts 307°
2026-05-08 15:27 61.19187 -13.11632 36175 ft 460 kts 307°
2026-05-08 15:28 61.22979 -13.22272 36173 ft 460 kts 307°
2026-05-08 15:28 61.26760 -13.32929 36176 ft 460 kts 307°
2026-05-08 15:29 61.30512 -13.43552 36176 ft 459 kts 307°
2026-05-08 15:29 61.34266 -13.54234 36177 ft 459 kts 307°
2026-05-08 15:30 61.38036 -13.65008 36176 ft 459 kts 308°
2026-05-08 15:30 61.41768 -13.75724 36183 ft 459 kts 307°
2026-05-08 15:31 61.45484 -13.86443 36185 ft 459 kts 307°
2026-05-08 15:31 61.49199 -13.97211 36185 ft 459 kts 307°
2026-05-08 15:32 61.52932 -14.08079 36191 ft 458 kts 307°
2026-05-08 15:32 61.56606 -14.18831 36182 ft 457 kts 307°
2026-05-08 15:33 61.60296 -14.29675 36188 ft 456 kts 307°
2026-05-08 15:33 61.63983 -14.40566 36190 ft 456 kts 307°
2026-05-08 15:34 61.67634 -14.51398 36193 ft 457 kts 307°
2026-05-08 15:34 61.71287 -14.62289 36198 ft 457 kts 307°
2026-05-08 15:35 61.74928 -14.73195 36203 ft 456 kts 306°
2026-05-08 15:35 61.78555 -14.84112 36199 ft 456 kts 306°
2026-05-08 15:36 61.81566 -14.93215 36198 ft 456 kts 307°
2026-05-08 15:36 61.85789 -15.06040 36203 ft 456 kts 307°
2026-05-08 15:37 61.89388 -15.17027 36207 ft 456 kts 307°
2026-05-08 15:37 61.92958 -15.27980 36207 ft 455 kts 307°
2026-05-08 15:38 61.96547 -15.39045 36213 ft 454 kts 307°
2026-05-08 15:38 62.00104 -15.50061 36218 ft 454 kts 307°
2026-05-08 15:39 62.03667 -15.61149 36223 ft 453 kts 307°
2026-05-08 15:39 62.07191 -15.72171 36231 ft 452 kts 306°
2026-05-08 15:40 62.10701 -15.83199 36234 ft 452 kts 306°
2026-05-08 15:40 62.14237 -15.94366 36229 ft 452 kts 306°
2026-05-08 15:41 62.17721 -16.05421 36226 ft 451 kts 306°
2026-05-08 15:41 62.21203 -16.16523 36228 ft 449 kts 306°
2026-05-08 15:42 62.24655 -16.27582 36220 ft 449 kts 306°
2026-05-08 15:42 62.28106 -16.38692 36221 ft 449 kts 307°
2026-05-08 15:43 62.31561 -16.49869 36219 ft 448 kts 307°
2026-05-08 15:43 62.34969 -16.60946 36220 ft 448 kts 307°
2026-05-08 15:44 62.38395 -16.72139 36219 ft 447 kts 306°
2026-05-08 15:44 62.41788 -16.83277 36221 ft 447 kts 306°
2026-05-08 15:45 62.45181 -16.94471 36224 ft 446 kts 306°
2026-05-08 15:45 62.48546 -17.05623 36227 ft 446 kts 306°
2026-05-08 15:46 62.51904 -17.16811 36221 ft 446 kts 306°
2026-05-08 15:46 62.55275 -17.28095 36217 ft 445 kts 306°
2026-05-08 15:47 62.58606 -17.39305 36229 ft 445 kts 306°
2026-05-08 15:47 62.61939 -17.50573 36226 ft 444 kts 306°
2026-05-08 15:48 62.66885 -17.67400 36232 ft 442 kts 305°
2026-05-08 15:49 62.70174 -17.78660 36218 ft 442 kts 305°
2026-05-08 15:49 62.73444 -17.89909 36218 ft 441 kts 305°
2026-05-08 15:50 62.76690 -18.01131 36222 ft 440 kts 305°
2026-05-08 15:50 62.79952 -18.12465 36223 ft 440 kts 306°
2026-05-08 15:51 62.83168 -18.23694 36220 ft 439 kts 306°
2026-05-08 15:51 62.86403 -18.35048 36216 ft 438 kts 306°
2026-05-08 15:52 62.89601 -18.46326 36223 ft 437 kts 306°
2026-05-08 15:52 62.92793 -18.57642 36216 ft 437 kts 306°
2026-05-08 15:53 62.95970 -18.68962 36222 ft 436 kts 305°
2026-05-08 15:53 62.99218 -18.80088 36220 ft 433 kts 309°
2026-05-08 15:54 63.02735 -18.90727 36223 ft 431 kts 309°
2026-05-08 15:54 63.06240 -19.01402 36230 ft 430 kts 309°
2026-05-08 15:55 63.09748 -19.12138 36226 ft 430 kts 309°
2026-05-08 15:55 63.14962 -19.28201 36227 ft 430 kts 309°
2026-05-08 15:56 63.18411 -19.38894 36232 ft 429 kts 309°
2026-05-08 15:56 63.21870 -19.49669 36240 ft 429 kts 309°
2026-05-08 15:57 63.25288 -19.60372 36242 ft 428 kts 309°
2026-05-08 15:57 63.28720 -19.71172 36258 ft 428 kts 308°
2026-05-08 15:58 63.32128 -19.81945 36252 ft 428 kts 308°
2026-05-08 15:58 63.35524 -19.92737 36254 ft 428 kts 309°
2026-05-08 15:59 63.38921 -20.03583 36249 ft 426 kts 308°
2026-05-08 15:59 63.42281 -20.14359 36252 ft 426 kts 308°
2026-05-08 16:00 63.45645 -20.25205 36250 ft 426 kts 309°
2026-05-08 16:00 63.49000 -20.36073 36252 ft 421 kts 308°
2026-05-08 16:01 63.52255 -20.46672 36256 ft 412 kts 309°
2026-05-08 16:01 63.55304 -20.57417 36252 ft 408 kts 301°
2026-05-08 16:02 63.57157 -20.69455 36248 ft 409 kts 290°
2026-05-08 16:02 63.58648 -20.81620 36255 ft 405 kts 291°
2026-05-08 16:03 63.60118 -20.93688 36257 ft 403 kts 291°
2026-05-08 16:03 63.61574 -21.05742 36260 ft 399 kts 291°
2026-05-08 16:04 63.63009 -21.17726 36263 ft 395 kts 291°
2026-05-08 16:04 63.64410 -21.29518 36266 ft 392 kts 291°
2026-05-08 16:05 63.65798 -21.41296 36271 ft 389 kts 291°
2026-05-08 16:05 63.67164 -21.52973 36276 ft 386 kts 291°
2026-05-08 16:06 63.68514 -21.64615 36279 ft 383 kts 291°
2026-05-08 16:06 63.69838 -21.76129 36286 ft 380 kts 290°
2026-05-08 16:07 63.71146 -21.87594 36288 ft 377 kts 290°
2026-05-08 16:07 63.72434 -21.98973 36297 ft 374 kts 290°
2026-05-08 16:08 63.73694 -22.10197 36297 ft 371 kts 290°
2026-05-08 16:08 63.74948 -22.21456 36291 ft 369 kts 290°
2026-05-08 16:09 63.75978 -22.30766 36289 ft 366 kts 290°
2026-05-08 16:09 63.77438 -22.43526 36286 ft 346 kts 291°
2026-05-08 16:10 63.78047 -22.48640 36284 ft 332 kts 291°
2026-05-08 16:10 63.78640 -22.53569 36282 ft 318 kts 294°
2026-05-08 16:10 63.79451 -22.58005 36282 ft 299 kts 305°
2026-05-08 16:10 63.80645 -22.61657 36276 ft 282 kts 319°
2026-05-08 16:11 63.82154 -22.64336 36276 ft 267 kts 332°
2026-05-08 16:11 63.83825 -22.65853 36273 ft 257 kts 345°
2026-05-08 16:11 63.85566 -22.66189 36271 ft 254 kts 360°
2026-05-08 16:11 63.87330 -22.65333 36281 ft 268 kts 14°
2026-05-08 16:12 63.89016 -22.63310 36292 ft 282 kts 26°
2026-05-08 16:12 63.90644 -22.60881 36263 ft 271 kts 18°
2026-05-08 16:12 63.92341 -22.59397 36026 ft 260 kts
2026-05-08 16:12 63.94128 -22.59021 35447 ft 264 kts 351°
2026-05-08 16:13 63.95937 -22.59770 34957 ft 267 kts 343°
2026-05-08 16:13 63.97769 -22.60476 34623 ft 267 kts 352°
2026-05-08 16:13 63.99634 -22.60576 34291 ft 267 kts 354°
2026-05-08 16:13 64.01469 -22.60554 33911 ft 265 kts 354°
2026-05-08 16:14 64.03305 -22.60547 33531 ft 263 kts 354°
2026-05-08 16:14 64.05106 -22.60547 33156 ft 261 kts 354°
2026-05-08 16:14 64.06898 -22.60546 32784 ft 259 kts 354°
2026-05-08 16:14 64.08687 -22.60546 32403 ft 257 kts 354°
2026-05-08 16:15 64.10472 -22.60546 32018 ft 256 kts 354°
2026-05-08 16:15 64.12225 -22.60547 31647 ft 254 kts 354°
2026-05-08 16:15 64.13937 -22.61070 31277 ft 245 kts 334°
2026-05-08 16:15 64.15244 -22.63459 30850 ft 248 kts 306°
2026-05-08 16:16 64.15769 -22.67306 30389 ft 267 kts 279°
2026-05-08 16:16 64.15401 -22.71717 29190 ft 315 kts 255°
2026-05-08 16:16 64.14030 -22.75944 27882 ft 362 kts 229°
2026-05-08 16:16 64.11774 -22.78845 26927 ft 390 kts 203°
2026-05-08 16:17 64.09077 -22.79653 26205 ft 401 kts 183°
2026-05-08 16:17 64.07233 -22.79464 25744 ft 402 kts 180°
2026-05-08 16:17 64.03525 -22.78938 24898 ft 398 kts 180°
2026-05-08 16:17 64.00816 -22.78541 24305 ft 394 kts 180°
2026-05-08 16:18 63.98107 -22.78147 23720 ft 390 kts 180°
2026-05-08 16:18 63.95417 -22.77769 23153 ft 385 kts 180°
2026-05-08 16:18 63.92814 -22.77411 22573 ft 379 kts 180°
2026-05-08 16:18 63.90215 -22.77060 21956 ft 375 kts 180°
2026-05-08 16:19 63.87606 -22.76726 21316 ft 371 kts 180°
2026-05-08 16:19 63.85066 -22.76406 20669 ft 368 kts 180°
2026-05-08 16:19 63.82532 -22.76096 20036 ft 364 kts 180°
2026-05-08 16:19 63.80053 -22.75796 19430 ft 360 kts 180°
2026-05-08 16:20 63.77567 -22.75501 18808 ft 356 kts 180°
2026-05-08 16:20 63.75146 -22.75219 18221 ft 352 kts 180°
2026-05-08 16:20 63.72727 -22.74948 17667 ft 347 kts 180°
2026-05-08 16:20 63.70317 -22.74696 17082 ft 343 kts 180°
2026-05-08 16:21 63.67973 -22.74457 16517 ft 339 kts 180°
2026-05-08 16:21 63.65644 -22.74224 15951 ft 335 kts 180°
2026-05-08 16:21 63.63340 -22.74003 15382 ft 332 kts 180°
2026-05-08 16:21 63.61035 -22.73791 14803 ft 329 kts 180°
2026-05-08 16:22 63.58786 -22.73591 14237 ft 325 kts 180°
2026-05-08 16:22 63.56535 -22.73396 13692 ft 321 kts 180°
2026-05-08 16:22 63.54333 -22.73209 13164 ft 317 kts 180°
2026-05-08 16:22 63.52168 -22.73023 12632 ft 313 kts 180°
2026-05-08 16:23 63.50005 -22.72830 12125 ft 308 kts 180°
2026-05-08 16:23 63.47901 -22.72641 11612 ft 304 kts 180°
2026-05-08 16:23 63.45824 -22.72490 11099 ft 298 kts 185°
2026-05-08 16:23 63.43882 -22.73549 10558 ft 283 kts 214°
2026-05-08 16:24 63.42508 -22.76424 9987 ft 266 kts 245°
2026-05-08 16:24 63.42045 -22.80187 9398 ft 251 kts 276°
2026-05-08 16:24 63.42565 -22.83742 8790 ft 241 kts 308°
2026-05-08 16:24 63.43869 -22.85835 8439 ft 229 kts 344°
2026-05-08 16:25 63.45473 -22.86025 8573 ft 240 kts 359°
2026-05-08 16:25 63.47161 -22.85788 8597 ft 246 kts
2026-05-08 16:25 63.48820 -22.84839 8609 ft 253 kts 24°
2026-05-08 16:25 63.50296 -22.82712 8609 ft 256 kts 30°
2026-05-08 16:26 63.51757 -22.80391 8613 ft 257 kts 30°
2026-05-08 16:26 63.53197 -22.78095 8614 ft 258 kts 30°
2026-05-08 16:26 63.54657 -22.75781 8615 ft 258 kts 30°
2026-05-08 16:26 63.56130 -22.73458 8612 ft 258 kts 30°
2026-05-08 16:27 63.57587 -22.71172 8607 ft 258 kts 30°
2026-05-08 16:27 63.59064 -22.68866 8602 ft 257 kts 29°
2026-05-08 16:27 63.60533 -22.66583 8607 ft 257 kts 29°
2026-05-08 16:27 63.61987 -22.64335 8602 ft 257 kts 29°
2026-05-08 16:28 63.63475 -22.62139 8599 ft 254 kts 21°
2026-05-08 16:28 63.65115 -22.61070 8565 ft 239 kts
2026-05-08 16:28 63.66685 -22.60738 8508 ft 216 kts 359°
2026-05-08 16:28 63.68234 -22.60542 6772 ft 263 kts 358°
2026-05-08 16:29 63.69988 -22.60348 6638 ft 236 kts 359°
2026-05-08 16:29 63.71634 -22.60288 5370 ft 259 kts 357°
2026-05-08 16:29 63.73408 -22.60246 4706 ft 250 kts 355°
2026-05-08 16:29 63.75062 -22.60428 4475 ft 232 kts 354°
2026-05-08 16:30 63.76636 -22.60489 4155 ft 220 kts 355°
2026-05-08 16:30 63.78114 -22.60512 3844 ft 210 kts 356°
2026-05-08 16:30 63.79549 -22.60523 3551 ft 201 kts 356°
2026-05-08 16:30 63.80915 -22.60528 3284 ft 192 kts 356°
2026-05-08 16:31 63.82208 -22.60530 3030 ft 184 kts 355°
2026-05-08 16:31 63.83436 -22.60528 2792 ft 170 kts 355°
2026-05-08 16:31 63.84566 -22.60526 2566 ft 158 kts 355°
2026-05-08 16:31 63.85630 -22.60526 2352 ft 148 kts 355°
2026-05-08 16:32 63.86626 -22.60528 2158 ft 137 kts 355°
2026-05-08 16:32 63.87513 -22.60522 1979 ft 118 kts 354°
2026-05-08 16:32 63.88261 -22.60516 1813 ft 102 kts 353°
2026-05-08 16:32 63.89005 -22.60574 1639 ft 105 kts 353°
2026-05-08 16:33 63.89821 -22.60608 1545 ft 128 kts 354°
2026-05-08 16:33 63.90661 -22.60593 1349 ft 118 kts 354°
2026-05-08 16:33 63.91513 -22.60564 1199 ft 125 kts 357°
2026-05-08 16:33 63.92366 -22.60541 1016 ft 122 kts 355°
2026-05-08 16:34 63.93220 -22.60538 848 ft 125 kts 354°
2026-05-08 16:34 63.94094 -22.60535 628 ft 126 kts 357°
2026-05-08 16:34 63.94966 -22.60523 535 ft 125 kts 353°
2026-05-08 16:34 63.95858 -22.60555 352 ft 127 kts 356°
2026-05-08 16:35 63.96717 -22.60545 179 ft 124 kts 356°
2026-05-08 16:35 63.97494 -22.60530 165 ft 96 kts 357°
2026-05-08 16:35 63.97945 -22.60552 171 ft 28 kts 355°
2026-05-08 16:35 63.98094 -22.60607 171 ft 17 kts 339°
2026-05-08 16:36 63.98176 -22.60700 170 ft 9 kts 330°
2026-05-08 16:36 63.98215 -22.60751 169 ft 6 kts 330°
2026-05-08 16:36 63.98280 -22.60835 167 ft 12 kts 330°
2026-05-08 16:36 63.98329 -22.60899 166 ft 14 kts 330°
2026-05-08 16:37 63.98420 -22.60950 166 ft 12 kts
2026-05-08 16:37 63.98510 -22.60951 166 ft 15 kts 358°
2026-05-08 16:37 63.98613 -22.60948 166 ft 13 kts
2026-05-08 16:37 63.98706 -22.60946 165 ft 14 kts 359°
2026-05-08 16:38 63.98808 -22.60951 163 ft 16 kts 357°
2026-05-08 16:38 63.98932 -22.60949 161 ft 15 kts
2026-05-08 16:38 63.99027 -22.60946 160 ft 15 kts 359°
2026-05-08 16:38 63.99126 -22.60948 156 ft 11 kts 358°
2026-05-08 16:39 63.99173 -22.61049 154 ft 12 kts 267°
2026-05-08 16:39 63.99171 -22.61287 150 ft 16 kts 271°
2026-05-08 16:39 63.99204 -22.61438 148 ft 8 kts 351°
2026-05-08 16:39 63.99251 -22.61424 147 ft 4 kts 45°
2026-05-08 16:40 63.99257 -22.61373 147 ft 2 kts 91°
2026-05-08 16:40 63.99247 -22.61316 148 ft 4 kts 73°
2026-05-08 16:40 63.99283 -22.61372 147 ft 10 kts 309°
2026-05-08 16:40 63.99329 -22.61432 146 ft 8 kts 356°
2026-05-08 16:41 63.99375 -22.61376 145 ft 9 kts 89°
2026-05-08 16:41 63.99375 -22.61261 146 ft 0 kts 89°